Torna al catalogo

NUSHSAT 1

AttivoRadioamatoreSSO
NORAD 63211·PAYLOAD·🇸🇬 Singapore

Lanciato Mar 15, 2025 da Vandenberg Space Force Base

Loading…

Prossimi Passaggi (prossime 24 ore)

TLE

AggiornatoSource: AMSAT

Epoca: Sep 13, 2026, 16:41 UTC

1 63211U 25052B   26256.69553175  .00017314  00000-0  44664-3 0  9992
2 63211  97.3843 154.5876 0004715 112.7364 247.4381 15.39224729 83741

Traccia NUSHSAT 1 in tempo reale con AllMySat

Download on the App Store